"2022-01-05 00:01:00",2751070,4.462667,250.5331,4.601866,0.4920632,5.93,0,3.108,244.0636,4.876501,0.4804748,3.89,0,-999,0,2.5,83.5,2.659,2.603,4.617,0.358,0,2.743,13.58,5.388,100.155,3.187,3.188,3.187,100,0,0,0,208.5,97.6,97.6
"2022-01-05 00:02:00",2751071,4.346667,251.0017,6.848805,0.4568248,5.32,0,3.492666,245.8661,5.826325,0.4406732,4.49,0,-999,0,2.5,83.4,2.658,2.603,4.337,0.623,0,2.736,13.58,5.263,100.1626,3.187,3.187,3.187,100,0,0,0,208.5,97.6,97.6
"2022-01-05 00:03:00",2751072,4.376667,247.6701,5.119622,0.3585093,4.9,0,2.902,247.0101,8.641309,0.3728127,3.51,0,-999,0,2.513,83.2,2.658,2.609,4.138,0.544,0,2.725,13.58,5.138,100.1608,3.187,3.187,3.187,100,0,0,0,208.5,97.6,97.6
"2022-01-05 00:04:00",2751073,4.395333,250.9372,6.231613,0.4126317,5.11,0,2.778666,249.1807,7.606438,0.4425512,3.78,0,-999,0,2.54,83.1,2.663,2.615,3.821,0.428,0,2.715,13.57,4.45,100.1549,3.184,3.187,3.184,100,0,0,0,208.5,97.6,97.6
"2022-01-05 00:05:00",2751074,3.75,252.7332,2.541455,0.2747604,4.37,0,3.252667,249.9334,3.973903,0.6474716,4.17,0,-999,0,2.587,83.1,2.693,2.64,3.983,0.329,0,2.695,13.58,4.513,100.1488,3.184,3.184,3.184,100,0,0,0,208.5,97.6,97.6
"2022-01-05 00:06:00",2751075,4.018,249.2059,7.697664,0.3650972,4.71,0,3.192667,241.6787,6.789287,0.4649224,4.02,0,-999,0,2.6,83.1,2.725,2.683,4.071,0.354,0,2.695,13.57,4.95,100.1634,3.183,3.184,3.183,100,0,0,0,208.5,97.6,97.6
"2022-01-05 00:07:00",2751076,4.360001,247.4076,6.288131,0.5107381,5.3,0,3.217333,243.8704,5.757545,0.6201556,4.3,0,-999,0,2.58,82.7,2.659,2.631,4.487,0.405,0,2.689,13.58,5.2,100.164,3.182,3.183,3.182,100,0,0,0,208.5,97.6,97.6
"2022-01-05 00:08:00",2751077,4.27,252.7119,8.350138,0.405627,5.06,0,3.042,245.2772,7.701287,0.387491,4.06,0,-999,0,2.58,82.4,2.691,2.65,4.017,0.515,0,2.672,13.58,5.2,100.1482,3.182,3.182,3.182,100,0,0,0,208.5,97.6,97.6
"2022-01-05 00:09:00",2751078,4.155334,246.0643,6.199502,0.3895959,4.76,0,2.571333,244.2294,8.246213,0.4404826,3.5,0,-999,0,2.6,82.4,2.69,2.664,4.333,0.446,0,2.667,13.58,5.075,100.1584,3.18,3.182,3.18,100,0,0,0,208.5,97.6,97.6
"2022-01-05 00:10:00",2751079,4.615334,248.9288,5.230541,0.4983957,5.61,0,3.114666,243.933,3.990273,0.3205592,3.58,0,-999,0,2.587,82.5,2.641,2.607,4.521,0.497,0,2.652,13.57,5.388,100.1687,3.18,3.18,3.18,100,0,0,0,208.5,97.6,97.6
"2022-01-05 00:11:00",2751080,4.274667,250.674,7.194358,0.4348006,5.05,0,3.402,245.3365,5.384273,0.4331928,3.99,0,-999,0,2.5,82.6,2.581,2.551,3.937,0.629,0,2.652,13.58,5.263,100.1598,3.179,3.18,3.179,100,0,0,0,208.5,97.6,97.6
"2022-01-05 00:12:00",2751081,4.294667,251.1971,4.993487,0.4660597,5.1,0,3.075334,248.3451,7.6495,0.3829859,3.79,0,-999,0,2.5,82.6,2.521,2.508,4.383,0.483,0,2.646,13.58,5.075,100.1516,3.178,3.18,3.178,100,0,0,0,208.5,97.6,97.6
"2022-01-05 00:13:00",2751082,4.414,253.5376,5.723047,0.4022735,5.06,0,2.978667,250.0568,8.250925,0.4255015,3.8,0,-999,0,2.5,82.3,2.588,2.531,4.237,0.32,0,2.63,13.58,4.763,100.1664,3.178,3.178,3.177,100,0,0,0,208.5,97.6,97.6
"2022-01-05 00:14:00",2751083,4.32,252.4021,7.258562,0.4134247,5,0,3.014,247.2028,5.189941,0.4987157,3.97,0,-999,0,2.5,82,2.607,2.541,4.587,0.397,0,2.625,13.58,5.2,100.166,3.176,3.178,3.176,100,0,0,0,208.5,97.6,97.6
"2022-01-05 00:15:00",2751084,4.649333,255.3322,4.76817,0.7108161,5.87,0,3.218667,248.5974,6.264459,0.4914044,4.04,0,-999,0,2.5,81.6,2.606,2.54,3.883,0.407,0,2.609,13.58,4.7,100.1486,3.176,3.176,3.176,100,0,0,0,208.5,97.6,97.6
"2022-01-05 00:16:00",2751085,4.048666,253.9355,5.392205,0.3615129,4.71,0,2.916,250.9298,6.295036,0.4566516,3.85,0,-999,0,2.5,81.4,2.631,2.563,3.812,0.43,0,2.603,13.57,4.575,100.1561,3.175,3.176,3.174,100,0,0,0,208.5,97.6,97.6
"2022-01-05 00:17:00",2751086,3.930667,253.1326,3.180308,0.3167221,4.54,0,3.056,249.5954,5.349263,0.5597002,4.32,0,-999,0,2.5,81.5,2.608,2.541,3.942,0.262,0,2.587,13.57,4.388,100.1664,3.175,3.175,3.174,100,0,0,0,208.5,97.6,97.6
"2022-01-05 00:18:00",2751087,4.364667,253.8587,6.815265,0.4112237,5.02,0,2.772,248.533,4.672354,0.3618692,3.51,0,-999,0,2.487,81.5,2.534,2.499,3.996,0.394,0,2.583,13.58,4.825,100.159,3.174,3.174,3.174,100,0,0,0,208.5,97.6,97.6
"2022-01-05 00:19:00",2751088,4.042,248.3999,4.222942,0.3941268,4.85,0,2.571333,244.0005,3.811662,0.307308,3.3,0,-999,0,2.4,81.7,2.425,2.408,4.192,0.364,0,2.566,13.58,4.825,100.1498,3.174,3.174,3.174,100,0,0,0,208.5,97.6,97.6
"2022-01-05 00:20:00",2751089,3.936667,249.2663,3.315535,0.3076073,4.43,0,3.060667,243.3186,7.014209,0.4053553,3.72,0,-999,0,2.387,81.5,2.409,2.384,3.854,0.386,0,2.566,13.58,4.513,100.1592,3.174,3.174,3.173,100,0,0,0,208.5,97.6,97.6
"2022-01-05 00:21:00",2751090,4.921333,250.667,3.154523,0.8568771,6,0,2.962667,247.7713,7.166364,0.5113181,3.87,0,-999,0,2.3,81.2,2.386,2.383,4.987,0.479,0,2.547,13.58,5.888,100.1656,3.173,3.174,3.173,100,0,0,0,208.5,97.6,97.6
"2022-01-05 00:22:00",2751091,4.479333,250.9366,4.580543,0.4970776,5.46,0,2.912667,243.6009,6.158967,0.4361569,3.61,0,-999,0,2.287,81.4,2.322,2.334,4.279,0.288,0,2.538,13.58,4.888,100.1558,3.172,3.174,3.172,100,0,0,0,208.5,97.6,97.6
"2022-01-05 00:23:00",2751092,4.295333,247.3426,5.269562,0.3106738,4.81,0,2.706,242.3275,5.372188,0.3028707,3.26,0,-999,0,2.2,81.6,2.258,2.255,4.008,0.342,0,2.523,13.58,4.638,100.1502,3.172,3.172,3.172,100,0,0,0,208.5,97.6,97.6
"2022-01-05 00:24:00",2751093,4.052667,248.4681,4.254873,0.4013389,4.71,0,2.549999,243.5345,6.777831,0.2984627,3.1,0,-999,0,2.2,81.6,2.306,2.299,4.246,0.335,0,2.521,13.58,4.888,100.1471,3.172,3.172,3.172,100,0,0,0,208.5,97.6,97.6
"2022-01-05 00:25:00",2751094,4.173334,250.3361,5.296452,0.3627978,4.79,0,2.634666,246.2017,6.227207,0.4851098,3.44,0,-999,0,2.2,82,2.243,2.242,3.812,0.439,0,2.507,13.58,4.513,100.1626,3.172,3.172,3.172,100,0,0,0,208.5,97.6,97.6
"2022-01-05 00:26:00",2751095,3.94,246.1329,4.687228,0.4660901,4.58,0,3.322667,243.9381,6.706711,0.6968832,4.37,0,-999,0,2.16,81.8,2.247,2.23,3.867,0.435,0,2.494,13.58,4.638,100.1584,3.171,3.172,3.171,100,0,0,0,208.5,97.6,97.6
"2022-01-05 00:27:00",2751096,4.326,246.602,4.22129,0.6124029,5.52,0,2.802,246.8503,8.317138,0.3699405,3.3,0,-999,0,2.2,81.5,2.32,2.293,4.558,0.46,0,2.48,13.58,5.325,100.16,3.17,3.171,3.17,100,0,0,0,208.5,97.6,97.6
"2022-01-05 00:28:00",2751097,4.379333,250.2722,6.868432,0.3029954,4.81,0,3.102,246.1389,6.966833,0.3479885,3.76,0,-999,0,2.187,82,2.238,2.23,4.408,0.514,0,2.479,13.58,5.45,100.1477,3.17,3.171,3.17,100,0,0,0,208.5,97.6,97.6
"2022-01-05 00:29:00",2751098,4.696,251.5986,4.077436,0.6255111,5.88,0,3.139333,248.6017,6.787204,0.2150804,3.66,0,-999,0,2.107,82,2.196,2.188,4.55,0.346,0,2.463,13.58,5.263,100.1687,3.17,3.17,3.17,100,0,0,0,208.5,97.6,97.6
"2022-01-05 00:30:00",2751099,4.614,251.1426,6.83759,0.6332646,5.81,0,3.776667,246.7303,6.607921,0.5128568,5.08,0,-999,0,2.173,82,2.259,2.237,4.479,0.359,0,2.448,13.58,5.075,100.1744,3.17,3.17,3.17,100,0,0,0,208.5,97.6,97.6
"2022-01-05 00:31:00",2751100,4.333333,248.5997,4.585689,0.5212892,5.64,0,3.620667,243.8714,6.7697,0.715369,5.05,0,-999,0,2.2,81.7,2.305,2.27,4.633,0.408,0,2.438,13.58,5.263,100.1627,3.17,3.17,3.17,100,0,0,0,208.5,97.6,97.6
"2022-01-05 00:32:00",2751101,4.266,252.1319,4.513056,0.4847102,4.9,0,3.52,250.2657,7.623238,0.4783164,4.23,0,-999,0,2.227,81.5,2.383,2.333,4.825,0.506,0,2.424,13.57,5.638,100.1731,3.17,3.17,3.17,100,0,0,0,208.5,97.6,97.6
"2022-01-05 00:33:00",2751102,4.884,250.7336,4.402885,0.5349368,5.9,0,3.350667,248.9984,4.675215,0.5809012,4.89,0,-999,0,2.3,81.4,2.421,2.393,4.85,0.483,0,2.417,13.58,5.513,100.1607,3.17,3.17,3.17,100,0,0,0,208.5,97.6,97.6
"2022-01-05 00:34:00",2751103,4.322,249.6637,4.987336,0.4330388,4.96,0,3.543334,245.7129,9.127871,0.5654458,4.83,0,-999,0,2.3,81.4,2.398,2.387,4.617,0.361,0,2.404,13.58,5.2,100.1746,3.17,3.17,3.17,100,0,0,0,208.5,97.6,97.6
"2022-01-05 00:35:00",2751104,4.168666,252.9526,7.668408,0.5006111,4.98,0,3.507334,245.6717,6.433362,0.599505,4.31,0,-999,0,2.3,81.1,2.382,2.358,4.15,0.396,0,2.395,13.58,4.825,100.1707,3.17,3.17,3.17,100,0,0,0,208.5,97.6,97.6
"2022-01-05 00:36:00",2751105,5.159999,253.4013,4.392787,0.693926,6.19,0,3.814666,256.0606,7.223918,0.7909139,4.94,0,-999,0,2.3,81.3,2.407,2.383,5.679,0.684,0,2.395,13.58,6.95,100.1662,3.17,3.17,3.17,100,0,0,0,208.5,97.6,97.6
"2022-01-05 00:37:00",2751106,4.876,250.4711,6.328542,0.5225171,5.82,0,4.244667,247.6742,6.014766,0.5495316,5.22,0,-999,0,2.387,80.9,2.488,2.416,4.554,0.293,0,2.377,13.58,5.263,100.1568,3.17,3.17,3.169,100,0,0,0,208.5,97.6,97.6
"2022-01-05 00:38:00",2751107,4.529334,248.0647,3.973458,0.4785877,5.24,0,3.262667,244.4006,4.895101,0.5262884,4.16,0,-999,0,2.4,80.6,2.507,2.44,4.529,0.375,0,2.374,13.58,5.075,100.1659,3.168,3.17,3.168,100,0,0,0,208.5,97.6,97.6
"2022-01-05 00:39:00",2751108,5.200667,246.5322,3.929409,0.4906657,6.24,0,3.232667,242.9856,7.07669,0.4717833,3.91,0,-999,0,2.373,80.7,2.448,2.419,4.762,0.617,0,2.364,13.58,5.45,100.1664,3.168,3.168,3.168,100,0,0,0,208.5,97.6,97.6
"2022-01-05 00:40:00",2751109,4.42,243.7992,3.779703,0.4878251,5.17,0,3.566667,236.1954,4.775218,0.3055414,4.11,0,-999,0,2.32,80.5,2.398,2.394,4.687,0.407,0,2.352,13.58,5.513,100.1673,3.166,3.168,3.166,100,0,0,0,208.5,97.6,97.6
"2022-01-05 00:41:00",2751110,4.553334,244.2011,4.677043,0.4069999,5.37,0,3.124667,240.527,5.298702,0.5325895,4.26,0,-999,0,2.227,81,2.256,2.297,4.437,0.365,0,2.352,13.58,5.138,100.1541,3.165,3.166,3.165,100,0,0,0,208.5,97.6,97.6
"2022-01-05 00:42:00",2751111,4.484666,239.0002,4.514123,0.3366674,5.12,0,2.916,238.7979,6.012519,0.3654914,3.46,0,-999,0,2.147,81.5,2.163,2.224,4.321,0.273,0,2.35,13.58,4.888,100.1665,3.165,3.166,3.165,100,0,0,0,208.5,97.6,97.6
"2022-01-05 00:43:00",2751112,4.332,240.8668,3.480241,0.4502325,5.13,0,2.890666,242.0699,5.20687,0.4611936,3.61,0,-999,0,2.1,81.7,2.1,2.165,4.433,0.469,0,2.337,13.58,5.45,100.175,3.165,3.165,3.165,100,0,0,0,208.5,97.6,97.6
"2022-01-05 00:44:00",2751113,4.559333,243.533,3.343107,0.3873924,5.37,0,3.232,241.7304,4.183733,0.4778731,4.12,0,-999,0,2.02,81.9,2.078,2.137,4.475,0.228,0,2.331,13.57,4.763,100.1701,3.163,3.165,3.163,100,0,0,0,208.5,97.6,97.6
"2022-01-05 00:45:00",2751114,4.412,241.1331,2.728997,0.3715588,5.21,0,3.436,239.9999,5.315657,0.3086055,3.87,0,-999,0,2,82.2,2.077,2.12,4.421,0.259,0,2.32,13.58,4.888,100.1607,3.163,3.165,3.163,100,0,0,0,208.5,97.6,97.6
"2022-01-05 00:46:00",2751115,4.372,243.8664,3.402658,0.5240509,5.37,0,3.276667,242.8685,4.333294,0.4332769,4.02,0,-999,0,2,82.7,2.025,2.086,4.4,0.306,0,2.311,13.58,5.013,100.1706,3.163,3.165,3.163,100,0,0,0,208.5,97.6,97.6
"2022-01-05 00:47:00",2751116,4.263334,244.0602,5.670801,0.424981,5.22,0,2.906667,240.3356,4.235274,0.3332,3.29,0,-999,0,1.9,82.9,1.991,2.04,4.487,0.348,0,2.311,13.58,5.075,100.1712,3.163,3.163,3.163,100,0,0,0,208.5,97.6,97.6
"2022-01-05 00:48:00",2751117,4.711333,243.3955,4.525778,0.3695018,5.56,0,3.430667,240.7333,5.636079,0.5475578,4.17,0,-999,0,1.94,82.8,2.044,2.086,4.425,0.327,0,2.299,13.58,5.013,100.1545,3.163,3.163,3.163,100,0,0,0,208.5,97.6,97.6
"2022-01-05 00:49:00",2751118,4.774667,243.0638,4.340702,0.3843066,5.4,0,3.242667,242.4021,4.770748,0.4294255,4.26,0,-999,0,1.953,82.9,2.039,2.069,4.775,0.321,0,2.288,13.58,5.388,100.1654,3.163,3.163,3.163,100,0,0,0,208.5,97.6,97.6
"2022-01-05 00:50:00",2751119,4.286667,242.9998,3.245164,0.3588066,5.18,0,3.123333,241.8668,4.587383,0.4856977,4.29,0,-999,0,1.9,83.2,1.986,2.033,4.104,0.427,0,2.278,13.58,4.95,100.1685,3.163,3.163,3.163,100,0,0,0,208.5,97.6,97.6
"2022-01-05 00:51:00",2751120,4.446667,245.6632,5.881421,0.3513529,5.24,0,3.3,244.2016,5.549347,0.5147167,4.16,0,-999,0,1.9,83,2.039,2.037,4.483,0.372,0,2.268,13.58,5.263,100.1574,3.163,3.163,3.163,100,0,0,0,208.5,97.6,97.6
"2022-01-05 00:52:00",2751121,4.213334,243.203,4.067671,0.2629491,4.76,0,3.394667,242.2658,5.788316,0.4427771,4.28,0,-999,0,1.9,83.2,1.984,2.016,4.417,0.358,0,2.253,13.58,5.138,100.1652,3.163,3.163,3.163,100,0,0,0,208.5,97.6,97.6
"2022-01-05 00:53:00",2751122,4.551333,241.7999,3.832745,0.3699705,5.18,0,3.148667,239.86,5.106207,0.4703031,4.53,0,-999,0,1.9,83,2,2.016,4.583,0.395,0,2.245,13.58,5.45,100.1691,3.164,3.164,3.163,100,0,0,0,208.5,97.6,97.6
"2022-01-05 00:54:00",2751123,4.564001,242.1997,2.42738,0.4877814,5.78,0,3.043333,241.0041,7.078271,0.4636905,4.06,0,-999,0,1.887,83.1,1.922,1.957,4.637,0.423,0,2.233,13.58,5.638,100.1665,3.163,3.164,3.163,100,0,0,0,208.5,97.6,97.6
"2022-01-05 00:55:00",2751124,4.482666,244.5331,5.238383,0.2839593,4.84,0,3.334,239.6617,4.891825,0.2817753,3.86,0,-999,0,1.813,83.3,1.876,1.92,4.483,0.249,0,2.225,13.58,4.825,100.157,3.163,3.165,3.163,100,0,0,0,208.5,97.6,97.6
"2022-01-05 00:56:00",2751125,4.458666,242.7987,4.180093,0.3039488,5.12,0,2.854,240.8679,5.338522,0.3300262,3.47,0,-999,0,1.8,83.5,1.828,1.884,4.496,0.249,0,2.221,13.58,4.888,100.1716,3.163,3.163,3.162,100,0,0,0,208.5,97.6,97.6
"2022-01-05 00:57:00",2751126,4.514667,243.7322,6.240651,0.4793588,5.27,0,3.379333,239.9989,4.603041,0.4449938,4.12,0,-999,0,1.74,83.7,1.792,1.85,4.217,0.465,0,2.203,13.58,5.013,100.1717,3.163,3.164,3.163,100,0,0,0,208.5,97.6,97.6
"2022-01-05 00:58:00",2751127,4.657334,244.735,4.610083,0.386203,5.39,0,2.915333,244.3431,5.279827,0.3654744,3.66,0,-999,0,1.793,83.7,1.834,1.865,4.375,0.414,0,2.192,13.58,5.138,100.1744,3.163,3.165,3.163,100,0,0,0,208.5,97.6,97.6
"2022-01-05 00:59:00",2751128,4.342,247.0679,6.015898,0.448467,4.84,0,2.908667,241.2672,5.783204,0.4733268,3.64,0,-999,0,1.773,83.9,1.845,1.862,4.467,0.419,0,2.182,13.58,5.013,100.1632,3.163,3.165,3.163,100,0,0,0,208.5,97.6,97.6
"2022-01-05 01:00:00",2751129,4.760666,242.464,4.176003,0.2974887,5.35,0,2.998667,239.5315,4.468524,0.4578772,3.77,0,-999,0,1.8,83.7,1.866,1.879,4.783,0.358,0,2.182,13.58,5.7,100.1761,3.165,3.165,3.163,100,0,0,0,208.5,97.6,97.6
"2022-01-05 01:01:00",2751130,4.697999,246.4007,3.928409,0.3903537,5.66,0,2.886,242.8546,7.325029,0.4503302,3.67,0,-999,0,1.787,83.7,1.848,1.875,4.637,0.286,0,2.142,13.58,5.138,100.1744,3.165,3.165,3.163,100,0,0,0,208.5,97.6,97.6
"2022-01-05 01:02:00",2751131,4.268,245.9356,4.904276,0.3502989,4.83,0,3.361333,243.1902,5.698108,0.3769857,4.11,0,-999,0,1.8,83.8,1.876,1.883,4.346,0.344,0,2.131,13.58,4.888,100.1763,3.165,3.165,3.164,100,0,0,0,208.5,97.6,97.6
"2022-01-05 01:03:00",2751132,4.39,246.4661,4.393994,0.3168385,4.9,0,2.961333,243.2073,6.415313,0.3372214,3.72,0,-999,0,1.8,83.9,1.885,1.897,4.204,0.245,0,2.119,13.59,4.575,100.1689,3.165,3.165,3.163,100,0,0,0,208.5,97.6,97.6
"2022-01-05 01:04:00",2751133,4.262,247.5344,3.630325,0.2774455,4.75,0,3.158,245.6678,3.133066,0.4414853,4.21,0,-999,0,1.8,83.8,1.916,1.917,4.337,0.211,0,2.117,13.59,4.763,100.1706,3.165,3.165,3.165,100,0,0,0,208.5,97.6,97.6
"2022-01-05 01:05:00",2751134,4.778,248.4586,6.013732,0.4232603,5.43,0,3.313333,247.9982,6.31181,0.4149324,4,0,-999,0,1.833,83.7,1.993,1.958,4.496,0.387,0,2.105,13.58,5.138,100.1777,3.165,3.165,3.165,100,0,0,0,208.5,97.6,97.6
"2022-01-05 01:06:00",2751135,5.118667,247.0678,5.143155,0.6546437,7.26,0,3.557333,243.9449,7.570029,0.5489684,4.55,0,-999,0,1.9,83.5,2.074,2.032,4.929,0.469,0,2.096,13.58,5.763,100.18,3.163,3.165,3.163,100,0,0,0,208.5,97.6,97.6
"2022-01-05 01:07:00",2751136,5.021333,249.5337,3.77435,0.61931,6.45,0,3.632,244.5971,6.678011,0.7052205,5.14,0,-999,0,1.98,83.3,2.175,2.101,4.679,0.673,0,2.087,13.57,5.888,100.1707,3.162,3.164,3.162,100,0,0,0,208.5,97.6,97.6
"2022-01-05 01:08:00",2751137,4.838667,249.9376,6.264254,0.6579855,6.12,0,3.559334,250.2535,8.395677,0.5228826,4.86,0,-999,0,2.1,82.9,2.243,2.168,4.683,0.351,0,2.076,13.58,5.45,100.1813,3.163,3.163,3.162,100,0,0,0,208.5,97.6,97.6
"2022-01-05 01:09:00",2751138,4.842667,251.2017,4.035925,0.6954851,5.88,0,3.739333,243.1341,5.759564,0.6337451,4.98,0,-999,0,2.1,82.9,2.217,2.164,4.867,0.522,0,2.076,13.57,5.638,100.1813,3.161,3.163,3.161,100,0,0,0,208.5,97.6,97.6
"2022-01-05 01:10:00",2751139,4.835333,247.9324,5.479068,0.5858539,5.8,0,3.598667,245.7189,8.268272,0.4737069,4.52,0,-999,0,2.1,82.6,2.205,2.158,4.687,0.276,0,2.076,13.57,5.013,100.181,3.161,3.162,3.161,100,0,0,0,208.5,97.6,97.6
"2022-01-05 01:11:00",2751140,4.718666,246.2675,3.547992,0.7259923,6.08,0,3.852,245.797,5.931176,0.6366495,5,0,-999,0,2.1,82,2.262,2.201,4.817,0.318,0,2.061,13.58,5.45,100.1796,3.161,3.161,3.161,100,0,0,0,208.5,97.6,97.6
"2022-01-05 01:12:00",2751141,5.051333,249.0114,6.372513,0.4854258,6.19,0,3.568667,245.6753,6.951819,0.4624841,4.2,0,-999,0,2.1,82.2,2.228,2.183,4.896,0.538,0,2.053,13.58,5.513,100.1863,3.161,3.161,3.161,100,0,0,0,208.5,97.6,97.6
"2022-01-05 01:13:00",2751142,4.878666,246.4747,4.892409,0.6037534,6.57,0,3.427333,243.7957,5.81835,0.6653768,4.52,0,-999,0,2.1,82.5,2.172,2.149,4.892,0.397,0,2.053,13.58,5.7,100.1855,3.159,3.161,3.159,100,0,0,0,208.5,97.6,97.6
"2022-01-05 01:14:00",2751143,4.545334,247.7909,6.096745,0.457819,5.32,0,3.825999,238.9317,4.137824,0.5404664,4.85,0,-999,0,2.047,82.5,2.143,2.123,4.358,0.31,0,2.053,13.57,5.2,100.1832,3.158,3.159,3.158,100,0,0,0,208.5,97.6,97.6
"2022-01-05 01:15:00",2751144,4.757333,243.7274,6.504915,0.5536119,6.05,0,3.744667,242.5293,6.492648,0.7025465,4.97,0,-999,0,2.087,82,2.178,2.159,4.725,0.481,0,2.053,13.58,5.513,100.1744,3.157,3.158,3.157,100,0,0,0,208.5,97.6,97.6
"2022-01-05 01:16:00",2751145,5.410667,241.7367,4.651329,0.7823849,6.37,0,3.737334,243.0668,8.512455,0.7448083,5.21,0,-999,0,2.073,82.1,2.136,2.128,5.433,0.623,0,2.053,13.58,6.45,100.1814,3.156,3.157,3.156,100,0,0,0,208.5,97.6,97.6
"2022-01-05 01:17:00",2751146,5.214667,241.9849,6.089879,0.6046803,6.73,0,3.66,241.199,4.181314,0.5799885,4.85,0,-999,0,2.1,82,2.186,2.172,5.3,0.473,0,2.048,13.58,6.513,100.1848,3.155,3.157,3.155,100,0,0,0,208.5,97.6,97.6
"2022-01-05 01:18:00",2751147,5.122,246.7316,6.615707,0.4754114,5.97,0,4.27,247.798,7.426803,0.5069385,5.12,0,-999,0,2.1,82.4,2.205,2.181,5.087,0.466,0,2.048,13.57,5.888,100.1768,3.155,3.155,3.154,100,0,0,0,208.5,97.6,97.6
"2022-01-05 01:19:00",2751148,5.673334,251.4013,3.420943,0.5411304,6.51,0,4.416667,252.5984,6.211623,0.6210062,5.49,0,-999,0,2.12,82.9,2.28,2.245,5.596,0.643,0,2.051,13.57,6.575,100.1773,3.153,3.155,3.153,100,0,0,0,208.5,97.6,97.6
"2022-01-05 01:20:00",2751149,4.922,251.2668,4.088931,0.6251101,5.87,0,3.412666,250.2673,5.539219,0.7174721,4.98,0,-999,0,2.2,82.7,2.346,2.291,5.129,0.431,0,2.053,13.59,5.888,100.1881,3.153,3.154,3.152,100,0,0,0,208.5,97.6,97.6
"2022-01-05 01:21:00",2751150,4.772001,255.9357,4.418746,0.5003892,5.76,0,3.050667,256.3383,5.810329,0.739833,4.69,0,-999,0,2.2,82.5,2.391,2.334,4.075,0.431,0,2.053,13.58,5.138,100.1952,3.15,3.153,3.15,100,0,0,0,208.5,97.6,97.6
"2022-01-05 01:22:00",2751151,4.105333,256.6696,4.655491,0.6253837,5.27,0,2.830667,254.4755,5.687425,0.5618715,3.85,0,-999,0,2.227,82.8,2.401,2.363,4.104,0.332,0,2.053,13.58,4.638,100.1865,3.148,3.15,3.146,100,0,0,0,208.5,97.6,97.6
"2022-01-05 01:23:00",2751152,3.92,255.1293,5.881639,0.5301446,4.96,0,3.084,253.0033,8.463771,0.5814327,3.92,0,-999,0,2.267,83,2.391,2.357,3.937,0.473,0,2.065,13.58,4.825,100.1868,3.145,3.148,3.145,100,0,0,0,208.5,97.6,97.6
"2022-01-05 01:24:00",2751153,3.619333,258.0706,4.005303,0.2128056,3.98,0,2.534,256.5347,5.534237,0.2488855,3.02,0,-999,0,2.28,82.9,2.395,2.375,3.504,0.605,0,2.076,13.58,4.825,100.1974,3.145,3.146,3.144,100,0,0,0,208.5,97.6,97.6
"2022-01-05 01:25:00",2751154,3.903333,257.4756,6.429753,0.5911306,4.81,0,2.876667,259.3282,9.059555,0.6574463,4.06,0,-999,0,2.3,82.6,2.386,2.362,3.992,0.484,0,2.076,13.59,4.575,100.1969,3.143,3.144,3.143,100,0,0,0,208.5,97.6,97.6
"2022-01-05 01:26:00",2751155,3.758,261.3973,5.757921,0.6038123,4.74,0,2.903333,261.7983,4.338075,0.3815175,3.67,0,-999,0,2.233,82.4,2.349,2.321,3.896,0.429,0,2.096,13.58,4.7,100.1939,3.141,3.142,3.141,100,0,0,0,208.5,97.6,97.6
"2022-01-05 01:27:00",2751156,3.938,267.2009,3.690611,0.5686733,5.49,0,2.515333,261.9337,4.581336,0.2852103,3.14,0,-999,0,2.267,82.1,2.37,2.341,3.225,0.297,0,2.096,13.58,3.638,100.1926,3.139,3.141,3.139,100,0,0,0,208.5,97.6,97.6
"2022-01-05 01:28:00",2751157,3.522,267.0014,4.33513,0.474007,4.35,0,2.272667,269.6044,6.508331,0.3434621,2.84,0,-999,0,2.2,82,2.309,2.3,3.204,0.211,0,2.098,13.58,3.575,100.2029,3.138,3.14,3.138,100,0,0,0,208.5,97.6,97.6
"2022-01-05 01:29:00",2751158,3.461334,264.8023,7.255899,0.468997,4.29,0,2.202667,262.6597,7.305774,0.5891063,3.17,0,-999,0,2.2,82.4,2.232,2.237,3.329,0.588,0,2.116,13.58,4.325,100.2064,3.138,3.138,3.138,100,0,0,0,208.5,97.6,97.6
"2022-01-05 01:30:00",2751159,3.684,265.201,4.274681,0.2793994,4.08,0,2.448666,260.8596,9.70396,0.3182005,3.12,0,-999,0,2.107,82.6,2.166,2.194,3.496,0.165,0,2.113,13.58,3.7,100.2078,3.137,3.138,3.137,100,0,0,0,208.5,97.6,97.6
"2022-01-05 01:31:00",2751160,3.043334,260.3279,5.767415,0.2130624,3.39,0,2.334667,255.1345,4.937279,0.3021891,3.14,0,-999,0,2.08,82.3,2.091,2.12,2.883,0.232,0,2.119,13.59,3.325,100.1925,3.137,3.137,3.136,100,0,0,0,208.5,97.6,97.6
"2022-01-05 01:32:00",2751161,3.196667,255.169,9.426709,0.4388419,4.04,0,2.204,252.7846,10.21851,0.200825,2.51,0,-999,0,2,82.1,2.041,2.069,3.221,0.398,0,2.119,13.58,4.138,100.203,3.136,3.136,3.136,100,0,0,0,208.5,97.6,97.6
"2022-01-05 01:33:00",2751162,3.389333,253.9345,5.207682,0.4066196,3.99,0,2.474,252.667,4.252079,0.3323412,3.11,0,-999,0,2,82.1,2.014,2.045,3.992,0.369,0,2.119,13.58,4.7,100.206,3.134,3.136,3.134,100,0,0,0,208.5,97.6,97.6
"2022-01-05 01:34:00",2751163,4.032667,250.2691,4.993033,0.3155411,4.7,0,2.904,248.3322,7.381271,0.3615854,3.7,0,-999,0,1.96,82.1,2.016,2.049,3.796,0.318,0,2.119,13.58,4.325,100.1985,3.134,3.134,3.133,100,0,0,0,208.5,97.6,97.6
"2022-01-05 01:35:00",2751164,3.955333,245.7937,5.977456,0.4774218,4.6,0,2.902667,245.2046,6.751887,0.4504881,3.74,0,-999,0,1.9,82,2.016,2.048,4.042,0.335,0,2.113,13.57,4.763,100.1831,3.134,3.134,3.133,100,0,0,0,208.5,97.6,97.6
"2022-01-05 01:36:00",2751165,3.905333,246.9973,6.681962,0.5825102,5.16,0,2.884667,242.4005,5.081886,0.4726925,3.92,0,-999,0,1.9,82.2,2.006,2.035,3.829,0.239,0,2.113,13.58,4.388,100.1959,3.133,3.134,3.133,100,0,0,0,208.5,97.6,97.6
"2022-01-05 01:37:00",2751166,4.226666,245.1993,6.828428,0.5460239,4.99,0,2.808,242.4877,9.42988,0.4334235,3.89,0,-999,0,1.9,82.6,1.947,1.973,4.008,0.547,0,2.096,13.57,5.138,100.1935,3.133,3.134,3.133,100,0,0,0,208.5,97.6,97.6
"2022-01-05 01:38:00",2751167,4.24,243.8213,6.782031,0.4376452,5.06,0,3.161333,244.0029,6.150838,0.4621092,4.11,0,-999,0,1.887,82.8,1.934,1.955,4.55,0.486,0,2.096,13.58,5.325,100.1944,3.135,3.135,3.133,100,0,0,0,208.5,97.6,97.6
"2022-01-05 01:39:00",2751168,4.253334,243.7309,5.244506,0.6611471,5.49,0,2.86,241.0002,5.461367,0.4191738,4.01,0,-999,0,1.9,82.6,1.991,1.994,3.937,0.282,0,2.096,13.58,4.7,100.1828,3.135,3.135,3.134,100,0,0,0,208.5,97.6,97.6
"2022-01-05 01:40:00",2751169,4.243333,245.4641,6.190501,0.5728137,6.02,0,3.040667,240.7264,5.529625,0.3208004,3.75,0,-999,0,1.833,82.8,1.927,1.95,4.475,0.643,0,2.094,13.58,5.888,100.1958,3.136,3.137,3.135,100,0,0,0,208.5,97.6,97.6
"2022-01-05 01:41:00",2751170,4.596667,242.9311,4.43311,0.4689941,5.5,0,3.379333,238.714,8.679411,0.5964502,4.46,0,-999,0,1.8,83.1,1.87,1.904,4.246,0.489,0,2.076,13.58,5.388,100.1908,3.137,3.137,3.136,100,0,0,0,208.5,97.6,97.6
"2022-01-05 01:42:00",2751171,4.658,243.2,3.369872,0.4942766,5.48,0,3.601333,244.4001,6.467097,0.7974949,5.46,0,-999,0,1.8,83.2,1.88,1.902,4.621,0.465,0,2.076,13.59,5.513,100.1916,3.137,3.137,3.137,100,0,0,0,208.5,97.6,97.6
"2022-01-05 01:43:00",2751172,5.005333,244.4035,5.209421,0.4525463,5.82,0,3.396667,243.5997,4.377305,0.7722319,5.05,0,-999,0,1.8,83.3,1.883,1.895,4.746,0.396,0,2.076,13.58,5.325,100.1793,3.138,3.138,3.137,100,0,0,0,208.5,97.6,97.6
"2022-01-05 01:44:00",2751173,4.969333,244.7987,5.851401,0.5114745,5.91,0,3.773334,243.0705,5.902626,0.5829428,5.09,0,-999,0,1.8,83.1,1.951,1.953,4.808,0.414,0,2.076,13.57,5.513,100.1933,3.138,3.138,3.137,100,0,0,0,208.5,97.6,97.6
"2022-01-05 01:45:00",2751174,4.920667,243.4689,4.254757,0.5095156,5.91,0,3.437334,245.7677,8.772203,0.458308,4.61,0,-999,0,1.867,83,1.972,1.962,5.029,0.46,0,2.072,13.58,5.763,100.1959,3.138,3.138,3.137,100,0,0,0,208.5,97.6,97.6